| time (UTC) | temp F | wind direction | speed knots | gust knots | rain 1hr in | rain 24hr in | rain mn in | humidity % | barometer mb |
| 20260507052306 | 51 | 338 | 0.0 | 0.0 | 0.00 | 0.18 | 0.00 | 92 | 1007.4 |
| 20260507051759 | 51 | 338 | 0.0 | 0.0 | 0.00 | 0.18 | 0.00 | 92 | 1007.4 |
| 20260507051257 | 51 | 338 | 0.0 | 0.0 | 0.00 | 0.18 | 0.00 | 92 | 1007.4 |
| 20260507050814 | 51 | 338 | 0.0 | 0.0 | 0.00 | 0.18 | 0.00 | 92 | 1007.8 |
| 20260507050323 | 51 | 338 | 0.0 | 0.0 | 0.00 | 0.18 | 0.00 | 92 | 1007.8 |
| 20260507045758 | 51 | 338 | 0.0 | 0.9 | 0.00 | 0.18 | 0.00 | 92 | 1007.8 |
| 20260507045252 | 51 | 338 | 0.0 | 0.9 | 0.00 | 0.18 | 0.00 | 91 | 1007.6 |
| 20260507044755 | 51 | 339 | 0.0 | 0.0 | 0.00 | 0.18 | 0.00 | 91 | 1007.6 |
| 20260507044255 | 51 | 338 | 0.0 | 0.0 | 0.00 | 0.18 | 0.00 | 91 | 1007.6 |
| 20260507043757 | 51 | 338 | 0.0 | 0.0 | 0.00 | 0.18 | 0.00 | 91 | 1007.3 |
| 20260507043314 | 51 | 339 | 0.0 | 0.0 | 0.00 | 0.18 | 0.00 | 91 | 1007.3 |
| 20260507042813 | 51 | 339 | 0.0 | 0.9 | 0.00 | 0.18 | 0.00 | 91 | 1007.3 |
| 20260507042254 | 51 | 339 | 0.0 | 0.9 | 0.00 | 0.18 | 0.00 | 91 | 1007.1 |
| 20260507041802 | 51 | 339 | 0.0 | 0.0 | 0.00 | 0.18 | 0.00 | 92 | 1007.1 |
| 20260507041259 | 51 | 339 | 0.0 | 0.0 | 0.00 | 0.18 | 0.00 | 91 | 1007.1 |
| 20260507040813 | 51 | 339 | 0.0 | 0.0 | 0.00 | 0.18 | 0.00 | 91 | 1007.0 |
| 20260507040301 | 52 | 339 | 0.0 | 0.0 | 0.00 | 0.18 | 0.00 | 91 | 1007.0 |
| 20260507035817 | 52 | 339 | 0.0 | 0.0 | 0.00 | 0.18 | 0.18 | 91 | 1007.0 |
| 20260507035311 | 52 | 339 | 0.0 | 0.9 | 0.00 | 0.18 | 0.18 | 91 | 1007.2 |
| 20260507034805 | 52 | 339 | 0.0 | 0.9 | 0.00 | 0.18 | 0.18 | 91 | 1007.2 |
| 20260507034303 | 52 | 339 | 0.0 | 0.9 | 0.00 | 0.18 | 0.18 | 91 | 1007.2 |
| 20260507033800 | 52 | 339 | 0.0 | 0.9 | 0.00 | 0.18 | 0.18 | 91 | 1007.3 |
| 20260507033330 | 52 | 339 | 0.0 | 0.0 | 0.00 | 0.18 | 0.18 | 91 | 1007.3 |
| 20260507032805 | 52 | 339 | 0.0 | 0.9 | 0.00 | 0.18 | 0.18 | 91 | 1007.3 |
| 20260507032323 | 53 | 339 | 0.0 | 0.9 | 0.00 | 0.18 | 0.18 | 91 | 1007.2 |
| 20260507031821 | 53 | 339 | 0.0 | 0.0 | 0.00 | 0.18 | 0.18 | 91 | 1007.2 |
| 20260507031315 | 53 | 339 | 0.0 | 0.0 | 0.00 | 0.18 | 0.18 | 91 | 1007.2 |
| 20260507030805 | 53 | 339 | 0.0 | 0.9 | 0.00 | 0.18 | 0.18 | 91 | 1007.1 |
| 20260507030255 | 53 | 339 | 0.0 | 0.9 | 0.00 | 0.18 | 0.18 | 92 | 1007.1 |
| 20260507025825 | 54 | 339 | 0.0 | 0.9 | 0.00 | 0.18 | 0.18 | 92 | 1007.1 |
| 20260507025302 | 54 | 339 | 0.0 | 1.7 | 0.00 | 0.18 | 0.18 | 92 | 1006.8 |
| 20260507024755 | 54 | 339 | 0.0 | 1.7 | 0.00 | 0.18 | 0.18 | 92 | 1006.8 |
| 20260507024256 | 54 | 218 | 0.0 | 0.9 | 0.00 | 0.18 | 0.18 | 92 | 1006.8 |
| 20260507023810 | 54 | 218 | 0.0 | 0.9 | 0.00 | 0.18 | 0.18 | 92 | 1006.8 |
| 20260507023304 | 54 | 218 | 0.0 | 0.9 | 0.00 | 0.18 | 0.18 | 92 | 1006.8 |
| 20260507022756 | 54 | 218 | 0.0 | 0.0 | 0.00 | 0.18 | 0.18 | 92 | 1006.8 |
| 20260507022308 | 54 | 218 | 0.0 | 0.0 | 0.00 | 0.18 | 0.18 | 91 | 1006.8 |
| 20260507021823 | 54 | 218 | 0.0 | 0.0 | 0.00 | 0.18 | 0.18 | 91 | 1006.8 |
| 20260507021256 | 54 | 218 | 0.0 | 0.9 | 0.00 | 0.18 | 0.18 | 91 | 1006.8 |
| 20260507020757 | 54 | 218 | 0.0 | 0.9 | 0.00 | 0.18 | 0.18 | 91 | 1006.5 |
| 20260507020313 | 55 | 217 | 0.0 | 0.9 | 0.00 | 0.18 | 0.18 | 91 | 1006.5 |
| 20260507015807 | 55 | 217 | 0.0 | 1.7 | 0.00 | 0.18 | 0.18 | 91 | 1006.5 |
| 20260507015306 | 55 | 360 | 0.0 | 0.9 | 0.00 | 0.18 | 0.18 | 91 | 1006.6 |
| 20260507014803 | 55 | 212 | 0.0 | 0.9 | 0.00 | 0.18 | 0.18 | 91 | 1006.6 |
| 20260507014256 | 55 | 212 | 0.0 | 5.2 | 0.00 | 0.18 | 0.18 | 91 | 1006.6 |
| 20260507013809 | 56 | 212 | 1.7 | 5.2 | 0.00 | 0.18 | 0.18 | 91 | 1006.1 |
| 20260507013304 | 56 | 225 | 1.7 | 3.5 | 0.00 | 0.18 | 0.18 | 92 | 1006.1 |
| 20260507012833 | 57 | 360 | 1.7 | 3.5 | 0.00 | 0.18 | 0.18 | 92 | 1006.1 |
| 20260507012310 | 57 | 360 | 0.0 | 0.9 | 0.00 | 0.18 | 0.18 | 93 | 1005.5 |
| 20260507011805 | 57 | 360 | 0.0 | 1.7 | 0.00 | 0.18 | 0.18 | 93 | 1005.5 |
| 20260507011301 | 57 | 360 | 0.9 | 1.7 | 0.01 | 0.18 | 0.18 | 93 | 1005.5 |
| 20260507010820 | 58 | 360 | 0.0 | 1.7 | 0.01 | 0.18 | 0.18 | 93 | 1005.5 |
| 20260507010309 | 58 | 360 | 0.0 | 3.5 | 0.05 | 0.18 | 0.18 | 93 | 1005.5 |
| 20260507005805 | 58 | 360 | 0.9 | 3.5 | 0.06 | 0.18 | 0.18 | 93 | 1005.5 |
| 20260507005259 | 59 | 229 | 0.9 | 3.5 | 0.06 | 0.18 | 0.18 | 93 | 1005.3 |
| 20260507004808 | 59 | 221 | 0.0 | 1.7 | 0.06 | 0.18 | 0.18 | 94 | 1005.3 |
| 20260507004300 | 59 | 221 | 0.0 | 0.9 | 0.06 | 0.18 | 0.18 | 94 | 1005.3 |
| 20260507003756 | 59 | 221 | 0.0 | 0.9 | 0.06 | 0.18 | 0.18 | 94 | 1005.0 |
| 20260507003252 | 59 | 221 | 0.0 | 0.9 | 0.06 | 0.18 | 0.18 | 94 | 1005.0 |
| 20260507002807 | 59 | 221 | 0.0 | 2.6 | 0.06 | 0.18 | 0.18 | 94 | 1005.0 |
| 20260507002301 | 60 | 221 | 0.9 | 2.6 | 0.06 | 0.18 | 0.18 | 94 | 1004.8 |
| 20260507001814 | 60 | 5 | 0.9 | 3.5 | 0.06 | 0.18 | 0.18 | 95 | 1004.8 |
| 20260507001314 | 60 | 232 | 0.9 | 4.3 | 0.05 | 0.17 | 0.17 | 95 | 1004.8 |
| 20260507000827 | 60 | 224 | 2.6 | 4.3 | 0.05 | 0.17 | 0.17 | 95 | 1004.2 |
| 20260507000259 | 60 | 275 | 1.7 | 4.3 | 0.00 | 0.12 | 0.12 | 94 | 1004.2 |
| 20260506235832 | 60 | 117 | 0.9 | 4.3 | 0.00 | 0.14 | 0.12 | 94 | 1004.2 |
| 20260506235306 | 60 | 311 | 0.9 | 4.3 | 0.00 | 0.14 | 0.12 | 94 | 1003.9 |
| 20260506234802 | 60 | 233 | 0.9 | 4.3 | 0.00 | 0.14 | 0.12 | 94 | 1003.9 |
| 20260506234301 | 60 | 312 | 0.9 | 3.5 | 0.00 | 0.14 | 0.12 | 94 | 1003.9 |
| 20260506233808 | 60 | 41 | 0.0 | 3.5 | 0.00 | 0.14 | 0.12 | 94 | 1003.8 |
| 20260506233258 | 60 | 32 | 0.9 | 3.5 | 0.00 | 0.14 | 0.12 | 94 | 1003.8 |
| 20260506232808 | 60 | 355 | 0.9 | 3.5 | 0.00 | 0.14 | 0.12 | 94 | 1003.8 |
| 20260506232311 | 60 | 260 | 0.9 | 3.5 | 0.00 | 0.14 | 0.12 | 94 | 1003.7 |
| 20260506231804 | 60 | 299 | 0.9 | 3.5 | 0.00 | 0.14 | 0.12 | 94 | 1003.7 |
| 20260506231300 | 60 | 290 | 1.7 | 3.5 | 0.00 | 0.14 | 0.12 | 94 | 1003.7 |
| 20260506230814 | 60 | 187 | 0.0 | 2.6 | 0.00 | 0.14 | 0.12 | 94 | 1003.7 |
| 20260506230325 | 60 | 63 | 0.0 | 1.7 | 0.00 | 0.14 | 0.12 | 94 | 1003.7 |
| 20260506225758 | 60 | 298 | 0.9 | 1.7 | 0.00 | 0.14 | 0.12 | 94 | 1003.7 |
| 20260506225257 | 60 | 298 | 0.0 | 7.0 | 0.00 | 0.14 | 0.12 | 94 | 1003.7 |
| 20260506224753 | 60 | 90 | 0.9 | 3.5 | 0.00 | 0.14 | 0.12 | 94 | 1003.7 |
| 20260506224310 | 60 | 257 | 0.9 | 3.5 | 0.00 | 0.14 | 0.12 | 94 | 1003.7 |
| 20260506223806 | 60 | 256 | 0.9 | 6.1 | 0.00 | 0.14 | 0.12 | 94 | 1003.7 |
| 20260506223300 | 60 | 222 | 1.7 | 6.1 | 0.00 | 0.14 | 0.12 | 94 | 1003.7 |
| 20260506222758 | 60 | 92 | 0.0 | 3.5 | 0.00 | 0.14 | 0.12 | 94 | 1003.7 |
| 20260506222254 | 60 | 327 | 0.9 | 3.5 | 0.00 | 0.14 | 0.12 | 94 | 1003.7 |
| 20260506221826 | 60 | 5 | 0.0 | 2.6 | 0.00 | 0.14 | 0.12 | 94 | 1003.7 |
| 20260506221256 | 60 | 360 | 0.9 | 7.0 | 0.00 | 0.14 | 0.12 | 94 | 1003.7 |
| 20260506220810 | 60 | 17 | 2.6 | 7.0 | 0.00 | 0.14 | 0.12 | 94 | 1003.7 |
| 20260506220302 | 60 | 287 | 0.0 | 2.6 | 0.00 | 0.14 | 0.12 | 94 | 1003.7 |
| 20260506215757 | 60 | 123 | 0.9 | 6.1 | 0.00 | 0.14 | 0.12 | 94 | 1003.7 |
| 20260506215312 | 60 | 49 | 1.7 | 6.1 | 0.00 | 0.14 | 0.12 | 94 | 1003.7 |
| 20260506214805 | 60 | 360 | 0.9 | 3.5 | 0.00 | 0.14 | 0.12 | 94 | 1003.7 |
| 20260506214301 | 60 | 360 | 1.7 | 4.3 | 0.00 | 0.14 | 0.12 | 94 | 1003.7 |
| 20260506213800 | 60 | 360 | 0.9 | 5.2 | 0.00 | 0.14 | 0.12 | 93 | 1003.7 |
| 20260506213311 | 60 | 360 | 2.6 | 5.2 | 0.00 | 0.14 | 0.12 | 93 | 1003.7 |
| 20260506212807 | 60 | 360 | 0.9 | 2.6 | 0.00 | 0.14 | 0.12 | 93 | 1003.7 |
| 20260506212307 | 60 | 360 | 0.9 | 5.2 | 0.00 | 0.14 | 0.12 | 93 | 1003.7 |
| 20260506211808 | 60 | 360 | 0.9 | 5.2 | 0.00 | 0.14 | 0.12 | 93 | 1003.7 |
| 20260506211303 | 60 | 360 | 0.9 | 6.1 | 0.00 | 0.14 | 0.12 | 93 | 1003.7 |
| 20260506210800 | 60 | 360 | 1.7 | 5.2 | 0.00 | 0.14 | 0.12 | 93 | 1003.7 |
| 20260506210307 | 60 | 360 | 1.7 | 5.2 | 0.00 | 0.14 | 0.12 | 93 | 1003.7 |
| 20260506205823 | 60 | 360 | 0.9 | 4.3 | 0.01 | 0.14 | 0.12 | 93 | 1003.7 |
| 20260506205257 | 60 | 360 | 0.9 | 3.5 | 0.01 | 0.14 | 0.12 | 93 | 1003.8 |
| 20260506204807 | 60 | 360 | 1.7 | 3.5 | 0.01 | 0.14 | 0.12 | 93 | 1003.8 |
| 20260506204303 | 60 | 360 | 0.0 | 3.5 | 0.01 | 0.14 | 0.12 | 93 | 1003.8 |
| 20260506203758 | 60 | 360 | 0.9 | 2.6 | 0.01 | 0.14 | 0.12 | 93 | 1004.1 |
| 20260506203257 | 60 | 360 | 0.0 | 5.2 | 0.01 | 0.14 | 0.12 | 92 | 1004.1 |
| 20260506202814 | 60 | 360 | 0.9 | 3.5 | 0.01 | 0.14 | 0.12 | 92 | 1004.1 |
| 20260506202310 | 60 | 360 | 0.9 | 3.5 | 0.01 | 0.14 | 0.12 | 92 | 1004.2 |
| 20260506201804 | 60 | 360 | 0.9 | 4.3 | 0.02 | 0.14 | 0.12 | 92 | 1004.2 |
| 20260506201300 | 60 | 360 | 0.9 | 3.5 | 0.02 | 0.14 | 0.12 | 92 | 1004.2 |
| 20260506200758 | 60 | 360 | 1.7 | 7.8 | 0.02 | 0.14 | 0.12 | 92 | 1004.5 |
| 20260506200306 | 61 | 360 | 1.7 | 7.8 | 0.01 | 0.13 | 0.11 | 92 | 1004.5 |
| 20260506195757 | 61 | 360 | 0.9 | 4.3 | 0.01 | 0.13 | 0.11 | 92 | 1004.5 |
| 20260506195310 | 61 | 360 | 0.9 | 6.1 | 0.01 | 0.13 | 0.11 | 91 | 1004.7 |
| 20260506194804 | 61 | 360 | 1.7 | 6.1 | 0.02 | 0.13 | 0.11 | 92 | 1004.7 |
| 20260506194258 | 61 | 360 | 1.7 | 3.5 | 0.02 | 0.13 | 0.11 | 92 | 1004.7 |
| 20260506193813 | 61 | 360 | 0.9 | 3.5 | 0.02 | 0.13 | 0.11 | 92 | 1004.7 |
| 20260506193300 | 61 | 360 | 0.9 | 4.3 | 0.02 | 0.13 | 0.11 | 91 | 1004.7 |
| 20260506192802 | 61 | 360 | 0.9 | 4.3 | 0.02 | 0.13 | 0.11 | 91 | 1004.7 |
| 20260506192314 | 61 | 360 | 0.9 | 4.3 | 0.02 | 0.12 | 0.10 | 91 | 1004.8 |
| 20260506191812 | 61 | 360 | 0.9 | 2.6 | 0.02 | 0.12 | 0.10 | 91 | 1004.8 |
| 20260506191301 | 62 | 360 | 0.9 | 2.6 | 0.02 | 0.12 | 0.10 | 91 | 1004.8 |
| 20260506190834 | 62 | 360 | 0.9 | 2.6 | 0.02 | 0.12 | 0.10 | 91 | 1004.7 |
| 20260506190300 | 62 | 360 | 1.7 | 2.6 | 0.03 | 0.12 | 0.10 | 90 | 1004.7 |
| 20260506185756 | 62 | 360 | 1.7 | 3.5 | 0.03 | 0.12 | 0.10 | 90 | 1004.7 |
| 20260506185312 | 62 | 360 | 0.0 | 4.3 | 0.03 | 0.12 | 0.10 | 90 | 1004.8 |
| 20260506184805 | 62 | 360 | 1.7 | 4.3 | 0.02 | 0.11 | 0.09 | 90 | 1004.8 |
| 20260506184259 | 62 | 360 | 0.9 | 3.5 | 0.03 | 0.11 | 0.09 | 90 | 1004.8 |
| 20260506183814 | 62 | 360 | 0.9 | 1.7 | 0.03 | 0.11 | 0.09 | 89 | 1005.1 |
| 20260506183307 | 63 | 360 | 0.9 | 1.7 | 0.04 | 0.11 | 0.09 | 89 | 1005.1 |
| 20260506182758 | 63 | 360 | 0.9 | 1.7 | 0.06 | 0.11 | 0.09 | 89 | 1005.1 |
| 20260506182321 | 63 | 360 | 0.9 | 2.6 | 0.06 | 0.10 | 0.08 | 89 | 1005.2 |
| 20260506181800 | 63 | 360 | 0.9 | 2.6 | 0.07 | 0.10 | 0.08 | 89 | 1005.2 |
| 20260506181313 | 63 | 360 | 0.9 | 2.6 | 0.07 | 0.10 | 0.08 | 89 | 1005.2 |
| 20260506180808 | 63 | 360 | 0.9 | 1.7 | 0.08 | 0.10 | 0.08 | 88 | 1005.2 |
| 20260506180255 | 63 | 360 | 0.0 | 1.7 | 0.07 | 0.09 | 0.07 | 88 | 1005.2 |
| 20260506175810 | 63 | 360 | 0.0 | 0.9 | 0.07 | 0.09 | 0.07 | 87 | 1005.2 |
| 20260506175306 | 63 | 360 | 0.0 | 0.9 | 0.07 | 0.09 | 0.07 | 87 | 1005.4 |
| 20260506174759 | 64 | 360 | 0.0 | 0.9 | 0.07 | 0.09 | 0.07 | 87 | 1005.4 |
| 20260506174330 | 64 | 360 | 0.0 | 0.9 | 0.06 | 0.08 | 0.06 | 86 | 1005.4 |
| 20260506173823 | 64 | 360 | 0.0 | 0.9 | 0.06 | 0.08 | 0.06 | 85 | 1005.8 |
| 20260506173259 | 64 | 360 | 0.0 | 0.9 | 0.05 | 0.07 | 0.05 | 85 | 1005.8 |
| 20260506172757 | 64 | 360 | 0.0 | 0.9 | 0.03 | 0.05 | 0.03 | 85 | 1005.8 |
| 20260506172312 | 64 | 360 | 0.0 | 1.7 | 0.02 | 0.04 | 0.02 | 85 | 1006.1 |
| 20260506171811 | 64 | 360 | 0.0 | 1.7 | 0.01 | 0.03 | 0.01 | 84 | 1006.1 |
| 20260506171305 | 64 | 360 | 0.0 | 0.9 | 0.01 | 0.03 | 0.01 | 83 | 1006.1 |
| 20260506170758 | 64 | 360 | 0.0 | 1.7 | 0.00 | 0.02 | 0.00 | 83 | 1006.2 |
| 20260506170308 | 64 | 360 | 0.0 | 2.6 | 0.00 | 0.02 | 0.00 | 82 | 1006.2 |
| 20260506165759 | 64 | 360 | 0.9 | 2.6 | 0.00 | 0.02 | 0.00 | 82 | 1006.2 |
| 20260506165256 | 64 | 360 | 0.0 | 1.7 | 0.00 | 0.02 | 0.00 | 81 | 1006.1 |
| 20260506164809 | 64 | 360 | 0.0 | 5.2 | 0.00 | 0.02 | 0.00 | 81 | 1006.1 |
| 20260506164304 | 64 | 360 | 0.9 | 5.2 | 0.00 | 0.02 | 0.00 | 81 | 1006.1 |
| 20260506163801 | 64 | 360 | 0.9 | 4.3 | 0.00 | 0.02 | 0.00 | 80 | 1006.2 |
| 20260506163259 | 64 | 360 | 0.9 | 7.0 | 0.00 | 0.02 | 0.00 | 80 | 1006.2 |
| 20260506162756 | 64 | 360 | 0.9 | 3.5 | 0.00 | 0.02 | 0.00 | 80 | 1006.2 |
| 20260506162307 | 65 | 360 | 0.9 | 3.5 | 0.00 | 0.02 | 0.00 | 80 | 1006.3 |
| 20260506161802 | 65 | 360 | 0.0 | 6.1 | 0.00 | 0.02 | 0.00 | 79 | 1006.3 |
| 20260506161300 | 65 | 360 | 1.7 | 6.1 | 0.00 | 0.02 | 0.00 | 79 | 1006.3 |
| 20260506160756 | 65 | 360 | 0.9 | 4.3 | 0.00 | 0.02 | 0.00 | 79 | 1006.3 |
| 20260506160303 | 65 | 360 | 0.9 | 3.5 | 0.00 | 0.02 | 0.00 | 79 | 1006.3 |
| 20260506155756 | 64 | 360 | 1.7 | 6.1 | 0.00 | 0.02 | 0.00 | 79 | 1006.3 |
| 20260506155307 | 64 | 360 | 1.7 | 6.1 | 0.00 | 0.02 | 0.00 | 79 | 1006.8 |
| 20260506154811 | 64 | 360 | 1.7 | 4.3 | 0.00 | 0.02 | 0.00 | 79 | 1006.8 |
| 20260506154307 | 64 | 360 | 0.9 | 4.3 | 0.00 | 0.02 | 0.00 | 79 | 1006.8 |
| 20260506153802 | 64 | 360 | 0.9 | 4.3 | 0.00 | 0.02 | 0.00 | 80 | 1006.9 |
| 20260506153301 | 64 | 360 | 1.7 | 4.3 | 0.00 | 0.02 | 0.00 | 80 | 1006.9 |
| 20260506152756 | 64 | 360 | 0.9 | 4.3 | 0.00 | 0.02 | 0.00 | 80 | 1006.9 |
| 20260506152307 | 64 | 360 | 0.9 | 3.5 | 0.00 | 0.02 | 0.00 | 80 | 1007.4 |
| 20260506151759 | 64 | 360 | 0.9 | 5.2 | 0.00 | 0.02 | 0.00 | 80 | 1007.4 |
| 20260506151312 | 63 | 360 | 2.6 | 5.2 | 0.00 | 0.02 | 0.00 | 80 | 1007.4 |
| 20260506150807 | 63 | 360 | 1.7 | 4.3 | 0.00 | 0.02 | 0.00 | 81 | 1007.2 |
| 20260506150304 | 63 | 360 | 1.7 | 4.3 | 0.00 | 0.02 | 0.00 | 81 | 1007.2 |
| 20260506145759 | 63 | 360 | 1.7 | 4.3 | 0.00 | 0.02 | 0.00 | 81 | 1007.2 |
| 20260506145313 | 63 | 360 | 0.9 | 6.1 | 0.00 | 0.02 | 0.00 | 80 | 1007.3 |
| 20260506144808 | 63 | 360 | 1.7 | 6.1 | 0.00 | 0.02 | 0.00 | 80 | 1007.3 |
| 20260506144301 | 63 | 360 | 0.9 | 2.6 | 0.00 | 0.02 | 0.00 | 80 | 1007.3 |
| 20260506143756 | 63 | 360 | 0.9 | 4.3 | 0.00 | 0.02 | 0.00 | 80 | 1007.4 |
| 20260506143256 | 63 | 360 | 1.7 | 5.2 | 0.00 | 0.02 | 0.00 | 80 | 1007.4 |
| 20260506142756 | 63 | 360 | 1.7 | 5.2 | 0.00 | 0.02 | 0.00 | 81 | 1007.4 |
| 20260506142306 | 63 | 360 | 1.7 | 5.2 | 0.00 | 0.02 | 0.00 | 81 | 1007.1 |
| 20260506141759 | 63 | 360 | 1.7 | 5.2 | 0.00 | 0.02 | 0.00 | 81 | 1007.1 |
| 20260506141259 | 63 | 360 | 1.7 | 5.2 | 0.00 | 0.02 | 0.00 | 81 | 1007.1 |
| 20260506140819 | 63 | 360 | 1.7 | 7.8 | 0.00 | 0.02 | 0.00 | 82 | 1007.3 |
| 20260506140255 | 63 | 360 | 2.6 | 7.8 | 0.00 | 0.02 | 0.00 | 82 | 1007.3 |
| 20260506135812 | 62 | 360 | 2.6 | 5.2 | 0.00 | 0.02 | 0.00 | 82 | 1007.3 |
| 20260506135306 | 62 | 360 | 1.7 | 5.2 | 0.00 | 0.02 | 0.00 | 83 | 1007.0 |
| 20260506134801 | 62 | 360 | 1.7 | 3.5 | 0.00 | 0.02 | 0.00 | 84 | 1007.0 |
| 20260506134254 | 62 | 360 | 0.9 | 5.2 | 0.00 | 0.02 | 0.00 | 84 | 1007.0 |
| 20260506133812 | 61 | 360 | 1.7 | 5.2 | 0.00 | 0.02 | 0.00 | 84 | 1006.9 |
| 20260506133304 | 61 | 360 | 0.9 | 5.2 | 0.00 | 0.02 | 0.00 | 84 | 1006.9 |
| 20260506132822 | 61 | 360 | 0.9 | 5.2 | 0.00 | 0.02 | 0.00 | 85 | 1006.9 |
| 20260506132256 | 61 | 360 | 0.9 | 2.6 | 0.00 | 0.02 | 0.00 | 85 | 1007.3 |
| 20260506131810 | 61 | 360 | 1.7 | 4.3 | 0.00 | 0.02 | 0.00 | 85 | 1007.3 |
| 20260506131302 | 60 | 360 | 1.7 | 4.3 | 0.00 | 0.02 | 0.00 | 85 | 1007.3 |
| 20260506130804 | 60 | 360 | 0.9 | 3.5 | 0.00 | 0.02 | 0.00 | 86 | 1007.5 |
| 20260506130255 | 60 | 360 | 0.9 | 3.5 | 0.00 | 0.02 | 0.00 | 86 | 1007.5 |
| 20260506125812 | 60 | 360 | 1.7 | 3.5 | 0.00 | 0.02 | 0.00 | 86 | 1007.5 |
| 20260506125309 | 60 | 360 | 0.9 | 3.5 | 0.00 | 0.02 | 0.00 | 86 | 1007.8 |
| 20260506124805 | 60 | 360 | 0.9 | 3.5 | 0.00 | 0.02 | 0.00 | 86 | 1007.8 |
| 20260506124253 | 60 | 360 | 0.9 | 1.7 | 0.00 | 0.02 | 0.00 | 86 | 1007.8 |
| 20260506123811 | 60 | 360 | 0.9 | 3.5 | 0.00 | 0.02 | 0.00 | 86 | 1007.8 |
| 20260506123309 | 59 | 360 | 0.9 | 5.2 | 0.00 | 0.02 | 0.00 | 86 | 1007.8 |
| 20260506122809 | 59 | 360 | 0.9 | 5.2 | 0.00 | 0.02 | 0.00 | 87 | 1007.8 |
| 20260506122306 | 59 | 360 | 0.9 | 4.3 | 0.00 | 0.02 | 0.00 | 87 | 1007.8 |
| 20260506121759 | 59 | 360 | 1.7 | 4.3 | 0.00 | 0.02 | 0.00 | 87 | 1007.8 |
| 20260506121255 | 59 | 360 | 0.9 | 4.3 | 0.00 | 0.02 | 0.00 | 87 | 1007.8 |
| 20260506120812 | 59 | 360 | 0.9 | 4.3 | 0.00 | 0.02 | 0.00 | 87 | 1007.8 |
| 20260506120301 | 59 | 360 | 0.9 | 5.2 | 0.00 | 0.02 | 0.00 | 88 | 1007.8 |
| 20260506115756 | 59 | 360 | 0.9 | 5.2 | 0.00 | 0.02 | 0.00 | 88 | 1007.8 |
| 20260506115306 | 58 | 360 | 0.9 | 3.5 | 0.00 | 0.02 | 0.00 | 88 | 1007.8 |
| 20260506114802 | 58 | 360 | 0.9 | 3.5 | 0.00 | 0.02 | 0.00 | 88 | 1007.8 |
| 20260506114258 | 58 | 360 | 0.0 | 2.6 | 0.00 | 0.02 | 0.00 | 88 | 1007.8 |
| 20260506113754 | 58 | 360 | 0.0 | 2.6 | 0.00 | 0.02 | 0.00 | 88 | 1007.8 |
| 20260506113306 | 58 | 360 | 0.9 | 2.6 | 0.00 | 0.02 | 0.00 | 88 | 1007.8 |
| 20260506112801 | 58 | 360 | 0.0 | 2.6 | 0.00 | 0.02 | 0.00 | 89 | 1007.8 |
| 20260506112257 | 58 | 360 | 0.9 | 3.5 | 0.00 | 0.02 | 0.00 | 89 | 1007.9 |
| 20260506111755 | 58 | 360 | 1.7 | 4.3 | 0.00 | 0.02 | 0.00 | 89 | 1007.9 |
| 20260506111300 | 57 | 360 | 1.7 | 4.3 | 0.00 | 0.02 | 0.00 | 90 | 1007.9 |
| 20260506110812 | 57 | 360 | 0.0 | 3.5 | 0.00 | 0.02 | 0.00 | 90 | 1007.9 |
| 20260506110335 | 57 | 253 | 1.7 | 3.5 | 0.00 | 0.02 | 0.00 | 90 | 1007.9 |
| 20260506105809 | 57 | 46 | 0.0 | 1.7 | 0.00 | 0.02 | 0.00 | 90 | 1007.9 |
| 20260506105310 | 57 | 360 | 0.0 | 1.7 | 0.00 | 0.02 | 0.00 | 90 | 1007.9 |
| 20260506104809 | 57 | 351 | 0.9 | 1.7 | 0.00 | 0.02 | 0.00 | 90 | 1007.9 |
| 20260506104300 | 56 | 360 | 0.9 | 1.7 | 0.00 | 0.02 | 0.00 | 90 | 1007.9 |
| 20260506103758 | 56 | 360 | 0.9 | 1.7 | 0.00 | 0.02 | 0.00 | 91 | 1007.9 |
| 20260506103258 | 56 | 317 | 0.0 | 1.7 | 0.00 | 0.02 | 0.00 | 91 | 1007.9 |
| 20260506102820 | 56 | 360 | 0.0 | 1.7 | 0.00 | 0.02 | 0.00 | 90 | 1007.9 |
| 20260506102258 | 56 | 62 | 0.0 | 1.7 | 0.00 | 0.02 | 0.00 | 90 | 1007.8 |
| 20260506101758 | 56 | 65 | 0.0 | 1.7 | 0.00 | 0.02 | 0.00 | 90 | 1007.8 |
| 20260506101256 | 56 | 63 | 0.0 | 0.9 | 0.00 | 0.02 | 0.00 | 90 | 1007.8 |
| 20260506100800 | 56 | 61 | 0.0 | 0.9 | 0.00 | 0.02 | 0.00 | 90 | 1007.8 |
| 20260506100328 | 56 | 61 | 0.0 | 0.0 | 0.00 | 0.02 | 0.00 | 90 | 1007.8 |
| 20260506095801 | 56 | 61 | 0.0 | 0.0 | 0.00 | 0.02 | 0.00 | 90 | 1007.8 |
| 20260506095258 | 55 | 61 | 0.0 | 0.9 | 0.00 | 0.02 | 0.00 | 89 | 1007.4 |
| 20260506094756 | 55 | 62 | 0.0 | 0.9 | 0.00 | 0.02 | 0.00 | 89 | 1007.4 |
| 20260506094310 | 55 | 64 | 0.0 | 0.9 | 0.00 | 0.02 | 0.00 | 89 | 1007.4 |
| 20260506093807 | 55 | 63 | 0.0 | 2.6 | 0.00 | 0.02 | 0.00 | 89 | 1007.6 |
| 20260506093302 | 55 | 65 | 0.0 | 2.6 | 0.00 | 0.02 | 0.00 | 89 | 1007.6 |
| 20260506092756 | 55 | 43 | 0.0 | 0.0 | 0.00 | 0.02 | 0.00 | 88 | 1007.6 |
| 20260506092308 | 55 | 45 | 0.0 | 0.0 | 0.00 | 0.02 | 0.00 | 88 | 1007.7 |
| 20260506091802 | 55 | 360 | 0.0 | 0.0 | 0.00 | 0.02 | 0.00 | 88 | 1007.7 |
| 20260506091334 | 55 | 360 | 0.0 | 0.0 | 0.00 | 0.02 | 0.00 | 87 | 1007.7 |
| 20260506090805 | 55 | 360 | 0.0 | 0.0 | 0.00 | 0.02 | 0.00 | 87 | 1007.8 |
| 20260506090255 | 55 | 360 | 0.0 | 0.0 | 0.00 | 0.02 | 0.00 | 87 | 1007.8 |
| 20260506085805 | 55 | 360 | 0.0 | 0.0 | 0.00 | 0.02 | 0.00 | 87 | 1007.8 |
| 20260506085300 | 55 | 45 | 0.0 | 0.0 | 0.00 | 0.02 | 0.00 | 86 | 1007.7 |
| 20260506084815 | 56 | 360 | 0.0 | 0.0 | 0.00 | 0.02 | 0.00 | 86 | 1007.7 |
| 20260506084302 | 56 | 360 | 0.0 | 0.0 | 0.00 | 0.02 | 0.00 | 85 | 1007.7 |
| 20260506083821 | 56 | 44 | 0.0 | 0.0 | 0.00 | 0.02 | 0.00 | 85 | 1007.8 |
| 20260506083311 | 56 | 44 | 0.0 | 0.0 | 0.00 | 0.02 | 0.00 | 84 | 1007.8 |
| 20260506082831 | 56 | 360 | 0.0 | 0.0 | 0.00 | 0.02 | 0.00 | 84 | 1007.8 |
| 20260506082328 | 56 | 360 | 0.0 | 0.0 | 0.00 | 0.02 | 0.00 | 83 | 1007.8 |
| 20260506081802 | 56 | 44 | 0.0 | 0.0 | 0.00 | 0.02 | 0.00 | 83 | 1007.8 |
| 20260506081259 | 57 | 360 | 0.0 | 0.0 | 0.00 | 0.02 | 0.00 | 83 | 1007.8 |
| 20260506080757 | 57 | 360 | 0.0 | 0.0 | 0.00 | 0.02 | 0.00 | 82 | 1007.8 |
| 20260506080302 | 57 | 360 | 0.0 | 0.0 | 0.00 | 0.02 | 0.00 | 82 | 1007.8 |
| 20260506073309 | 58 | 360 | 0.0 | 0.0 | 0.00 | 0.02 | 0.00 | 79 | 1007.8 |
| 20260506072820 | 58 | 360 | 0.0 | 0.0 | 0.00 | 0.02 | 0.00 | 79 | 1007.8 |
| 20260506072257 | 59 | 360 | 0.0 | 0.0 | 0.00 | 0.02 | 0.00 | 79 | 1007.9 |
| 20260506071752 | 59 | 360 | 0.0 | 0.0 | 0.00 | 0.02 | 0.00 | 78 | 1007.9 |
| 20260506071253 | 59 | 360 | 0.0 | 0.0 | 0.00 | 0.02 | 0.00 | 78 | 1007.9 |
| 20260506070813 | 59 | 360 | 0.0 | 0.0 | 0.00 | 0.02 | 0.00 | 78 | 1007.9 |
| 20260506070255 | 60 | 360 | 0.0 | 0.0 | 0.00 | 0.02 | 0.00 | 77 | 1007.9 |
| 20260506062315 | 61 | 360 | 0.0 | 0.9 | 0.00 | 0.02 | 0.00 | 75 | 1007.5 |
| 20260506061806 | 61 | 360 | 0.0 | 0.0 | 0.00 | 0.02 | 0.00 | 75 | 1007.5 |
| 20260506061305 | 61 | 360 | 0.0 | 0.9 | 0.00 | 0.02 | 0.00 | 74 | 1007.5 |
| 20260506060758 | 61 | 360 | 0.0 | 0.9 | 0.00 | 0.02 | 0.00 | 74 | 1007.7 |
| 20260506060321 | 61 | 360 | 0.0 | 0.9 | 0.00 | 0.02 | 0.00 | 73 | 1007.7 |